Location: Biltmore Gardens
(41.6070°N, 83.4666°W)
Time: 15:14:52
(UTC+00:00)

ALOS 2 - Pass Details

Date: 14 July 2020
Orbit: 630 x 632 km, 97.9° (Epoch: 13 August)

Event Time Altitude Azimuth Distance (km) Brightness Sun altitude
Exits shadow 05:37:22 36° 290° (WNW) 1,000 3.7 -26.8°
Drops below altitude 10° 05:40:41 10° 332° (NNW) 2,021 6.0 -26.8°
Sets 05:43:00 0° 340° (NNW) 2,933 7.1 -26.8°
